Wind_Speed
15 14 15 15 15 15 15 15 16 16 16 16 16 16 16 16 17 17 18 19 20 22 24 25 27 29 30 32 34 35 36 37 37 37 37 37 37 38 38 37 37 37 36
19 18 18 18 19 18 18 18 19 20 21 21 21 21 21 20 20 21 21 22 23 25 27 28 30 32 33 35 36 38 40 41 42 43 43 43 43 42 42 42 42 42 42
24 24 24 23 24 24 24 24 24 25 27 27 27 26 25 24 24 24 25 27 28 29 31 33 34 36 37 38 39 40 42 43 44 45 45 46 46 45 45 45 45 45 46
30 31 30 30 30 31 31 31 30 30 30 30 29 28 27 26 26 27 28 30 32 34 35 36 38 39 40 41 42 44 45 46 46 47 47 48 48 48 47 48 48 48 48
35 36 36 37 38 37 36 34 32 32 32 31 30 29 29 28 28 28 30 33 35 37 39 39 41 42 43 44 46 47 48 49 49 50 50 51 52 52 52 52 52 52 52
38 40 40 41 41 39 37 33 30 29 27 27 27 27 27 27 29 30 32 34 36 39 42 43 44 45 46 48 49 51 52 52 53 54 55 55 56 57 57 57 57 57 56
39 38 40 40 39 38 35 31 26 23 22 22 24 25 28 30 30 32 34 37 39 41 43 45 47 49 50 51 53 54 56 57 57 58 59 60 61 61 61 61 61 61 61
36 34 34 34 34 33 30 24 21 22 23 25 25 27 28 30 31 34 36 39 41 44 47 49 51 53 54 56 57 57 59 60 62 63 63 64 65 65 65 65 65 64 64
31 30 29 31 30 27 24 21 21 23 25 26 28 30 32 35 36 38 40 44 46 49 52 53 55 56 57 59 60 61 61 63 64 66 67 68 68 68 68 68 67 66 65
28 25 25 26 24 23 22 22 24 26 29 30 33 35 38 41 44 47 48 50 51 53 55 56 58 59 60 61 62 63 64 65 66 67 69 69 70 70 69 69 69 68 67
25 23 23 24 23 23 24 26 28 31 33 36 37 40 42 45 48 51 54 56 58 58 58 59 60 62 63 65 66 67 67 68 69 70 71 71 71 71 71 71 71 71 70
27 24 24 25 26 28 29 31 33 36 38 40 42 45 47 50 52 54 56 58 59 60 61 62 63 65 66 67 68 68 68 69 70 71 72 72 73 73 73 73 73 73 73
29 28 30 31 32 33 34 36 38 40 42 44 47 49 51 54 56 58 59 59 60 60 62 63 64 64 65 67 68 67 68 69 70 71 72 72 73 74 74 74 74 74 74
34 33 34 34 35 36 37 40 42 44 46 49 51 53 55 57 58 59 60 60 60 60 62 63 63 63 64 66 68 68 69 70 70 70 71 72 73 73 74 74 74 75 74
37 36 37 38 38 39 41 43 46 48 51 53 55 56 58 59 60 60 60 61 61 60 59 61 62 63 65 67 69 69 68 68 66 66 66 66 67 67 68 70 71 71 71
38 39 40 42 43 44 45 48 50 52 54 56 58 58 59 60 60 60 60 60 60 59 58 60 63 65 65 66 65 64 62 60 58 56 55 55 55 55 56 58 61 63 65
42 42 43 45 46 48 50 52 53 55 56 58 58 59 59 59 59 59 59 59 59 61 60 61 63 63 61 59 56 53 51 48 46 44 42 41 41 42 43 45 47 50 53
46 45 46 48 50 51 53 54 56 56 57 58 58 58 58 58 58 57 57 58 60 61 62 60 58 55 52 48 44 42 40 38 36 34 33 32 32 33 34 35 37 39 41
49 49 50 51 52 54 55 56 56 57 57 58 57 57 57 56 56 57 58 59 60 60 58 54 49 45 42 38 36 34 33 32 31 29 28 27 27 28 28 28 29 30 31
51 51 52 53 54 55 56 56 56 56 56 56 56 55 55 55 56 57 58 59 57 54 50 44 39 36 34 34 33 32 31 30 29 28 26 25 25 25 25 24 24 25 26
53 53 54 55 56 56 56 56 55 55 55 55 55 55 55 55 57 57 56 54 51 46 40 35 33 32 32 33 34 33 31 30 29 27 25 24 23 22 22 21 21 21 22
53 54 55 55 55 55 55 55 55 54 54 54 54 54 55 56 55 53 50 47 42 37 33 30 30 31 32 33 32 32 31 30 28 27 25 24 22 21 20 19 18 17 17
53 54 54 54 54 54 54 54 54 53 53 52 53 54 54 52 49 45 42 38 35 31 29 30 31 32 31 30 30 29 29 28 27 25 24 23 22 19 18 16 15 15 15
52 53 53 54 53 53 53 53 52 52 51 52 52 51 48 45 40 37 33 31 29 29 29 30 30 29 28 26 26 25 24 24 24 23 22 21 20 18 17 15 14 13 13
51 52 52 52 51 50 50 50 50 50 50 50 48 44 40 36 32 28 25 25 25 26 28 27 26 24 23 22 22 22 22 22 22 21 20 19 18 17 16 15 14 14 13
49 49 49 49 48 48 48 49 48 47 46 44 41 37 33 28 24 21 20 20 22 23 23 22 21 21 21 21 20 21 21 20 20 19 17 15 13 13 13 14 14 14 14
Wind_Direction
289 283 280 278 276 274 271 268 265 265 267 268 269 270 272 273 275 277 279 282 283 284 284 285 285 284 284 284 283 282 281 279 278 276 274 272 271 270 268 267 265 263 261
285 278 273 272 271 270 269 267 266 265 265 264 264 266 267 268 271 274 276 279 281 283 284 284 283 283 282 281 281 280 279 278 277 275 273 271 269 268 267 265 264 262 260
282 275 270 267 267 267 268 268 268 266 265 264 263 263 263 266 270 273 277 279 281 283 284 284 282 281 280 279 278 277 276 276 275 274 272 271 269 267 266 264 263 261 260
276 271 266 264 264 264 265 267 268 269 268 269 267 265 266 270 272 275 279 281 283 284 284 282 281 280 278 277 276 275 274 273 272 271 270 269 268 267 266 264 263 261 260
275 269 265 262 263 263 265 269 272 276 276 274 273 271 274 275 277 279 282 284 285 286 285 283 282 281 280 279 277 276 274 273 271 269 269 268 267 266 266 264 263 262 260
276 271 266 265 265 266 268 271 276 279 279 279 279 280 281 284 288 288 288 288 287 286 286 286 285 283 282 281 280 278 276 273 271 269 268 267 267 266 266 265 263 262 261
280 276 273 270 268 267 270 269 275 282 289 292 293 294 292 292 292 292 291 290 289 288 288 288 287 286 284 282 281 279 277 275 272 271 269 268 267 267 266 265 264 263 261
283 278 274 272 272 272 269 275 287 295 295 296 298 300 298 296 296 295 293 292 291 291 291 290 289 287 286 284 282 280 278 276 274 272 271 270 269 268 266 265 264 262 260
287 278 275 273 274 274 280 289 298 301 303 303 303 303 303 302 301 298 297 296 296 295 293 292 290 288 286 284 283 281 279 277 276 274 272 271 270 269 267 266 264 262 260
294 285 278 274 278 285 293 299 301 303 305 305 306 305 304 305 304 304 302 300 298 297 295 294 292 290 288 286 284 282 280 278 276 274 273 272 271 270 268 266 264 262 260
305 294 286 285 289 300 304 304 303 303 303 304 304 304 304 303 302 302 302 302 301 299 297 295 293 291 289 287 285 283 281 278 276 275 273 272 271 270 268 266 265 263 261
308 300 298 298 300 303 304 303 302 301 301 302 302 302 302 301 300 300 300 299 299 298 297 296 294 292 290 289 287 285 283 281 279 277 275 273 272 270 268 266 265 264 262
306 301 301 302 302 302 301 300 299 298 299 300 300 299 299 299 299 299 299 299 298 298 297 296 294 293 291 290 289 288 287 285 282 280 278 276 273 271 269 267 265 264 262
303 299 299 300 300 298 297 296 296 297 298 298 298 298 299 299 300 299 299 299 299 298 298 297 296 295 294 293 292 291 289 287 285 283 280 278 275 273 270 268 266 264 262
299 297 297 297 297 296 295 295 296 296 296 297 298 298 299 300 300 299 300 300 300 299 299 298 297 296 296 296 295 294 292 290 288 285 282 279 277 274 272 269 267 265 263
297 295 295 296 296 295 295 295 295 295 296 297 298 299 300 300 300 300 300 300 300 300 300 299 299 299 298 297 296 296 295 293 291 289 285 281 278 276 273 270 267 265 262
298 297 296 296 295 294 294 294 295 295 296 297 298 299 300 300 301 301 301 301 301 301 302 302 302 301 300 299 299 299 299 298 296 294 290 286 282 278 276 273 270 267 264
298 297 296 295 294 293 293 294 294 295 296 297 299 299 300 300 301 301 302 302 303 303 304 304 303 302 302 302 303 303 304 303 301 299 296 293 288 285 282 279 276 271 267
298 297 295 293 292 292 292 293 294 295 297 298 299 300 301 302 302 302 303 304 305 305 306 306 304 303 304 306 307 307 307 306 305 303 301 298 294 292 289 286 282 277 272
296 295 294 293 292 292 292 293 294 296 297 299 300 301 302 302 303 304 305 305 306 307 307 306 306 306 307 308 308 307 307 306 305 304 302 298 296 296 295 293 288 282 277
293 292 292 291 291 291 292 294 296 297 299 300 301 302 303 304 305 305 306 307 307 308 308 307 306 307 307 308 307 306 305 303 302 301 300 298 297 297 298 298 296 290 282
290 290 289 290 291 292 293 295 297 299 300 301 302 303 304 305 306 307 307 308 309 309 308 308 308 308 308 307 306 305 303 302 300 298 297 296 296 295 295 297 299 297 290
288 288 289 290 291 293 295 297 298 300 301 302 303 304 305 306 307 308 309 309 309 310 309 310 311 311 310 309 308 307 306 305 302 298 294 291 291 291 292 295 298 298 294
288 288 289 291 292 294 296 297 299 300 301 302 304 305 306 307 308 309 309 308 309 311 312 314 316 316 315 315 315 315 315 313 310 305 300 292 285 283 284 288 294 298 298
288 289 290 292 293 294 296 298 299 300 302 303 304 305 307 307 308 308 307 307 310 313 316 318 320 322 323 325 326 325 324 323 320 315 308 300 288 280 278 281 287 292 295
289 290 291 292 294 295 297 298 300 301 302 303 304 305 307 308 308 306 307 310 315 318 321 324 327 329 330 331 332 332 332 333 332 328 325 315 301 287 280 279 284 288 291
Height
5875 5874 5872 5872 5871 5871 5870 5870 5869 5869 5868 5867 5867 5866 5866 5865 5865 5864 5863 5862 5861 5860 5859 5858 5857 5856 5855 5854 5853 5852 5851 5850 5849 5849 5849 5849 5848 5848 5849 5849 5849 5850 5850
5871 5870 5869 5868 5867 5866 5866 5866 5866 5865 5864 5863 5863 5862 5861 5861 5860 5858 5857 5856 5856 5854 5853 5852 5851 5849 5848 5846 5845 5843 5842 5841 5840 5839 5838 5838 5838 5838 5838 5839 5839 5840 5840
5866 5865 5864 5863 5861 5861 5861 5860 5860 5860 5859 5858 5857 5856 5855 5855 5854 5852 5851 5850 5849 5848 5846 5845 5843 5841 5840 5838 5836 5835 5833 5831 5830 5828 5827 5826 5826 5826 5826 5827 5827 5828 5828
5860 5858 5857 5856 5855 5853 5853 5853 5853 5853 5852 5851 5850 5849 5849 5848 5847 5846 5844 5842 5841 5839 5838 5836 5834 5833 5831 5829 5827 5825 5823 5821 5819 5818 5816 5815 5814 5813 5813 5814 5814 5815 5815
5853 5850 5849 5847 5846 5845 5845 5845 5845 5845 5844 5843 5842 5842 5841 5840 5839 5838 5836 5834 5832 5830 5828 5827 5824 5823 5820 5818 5816 5814 5811 5809 5808 5806 5805 5803 5802 5801 5800 5800 5800 5800 5801
5845 5842 5840 5838 5837 5837 5837 5838 5838 5837 5836 5835 5835 5834 5833 5832 5831 5830 5828 5826 5824 5821 5818 5816 5813 5811 5809 5806 5804 5801 5799 5796 5795 5793 5791 5789 5788 5786 5785 5784 5784 5785 5785
5836 5834 5832 5831 5830 5830 5830 5830 5830 5829 5828 5828 5827 5826 5825 5824 5823 5821 5819 5817 5814 5811 5808 5805 5801 5798 5795 5793 5790 5787 5784 5781 5779 5777 5775 5773 5772 5770 5769 5768 5768 5768 5769
5829 5827 5825 5824 5823 5823 5823 5823 5822 5822 5822 5821 5820 5819 5818 5817 5815 5812 5809 5806 5803 5800 5796 5792 5788 5784 5781 5777 5773 5772 5768 5765 5762 5759 5757 5755 5753 5752 5751 5750 5750 5750 5750
5822 5821 5820 5818 5816 5816 5816 5816 5816 5816 5815 5814 5812 5810 5808 5806 5804 5802 5799 5794 5791 5786 5781 5777 5773 5769 5764 5760 5756 5753 5750 5747 5744 5741 5738 5735 5733 5732 5731 5731 5730 5731 5732
5816 5815 5814 5812 5811 5810 5810 5810 5810 5809 5808 5806 5803 5801 5798 5794 5791 5787 5784 5781 5776 5771 5766 5760 5755 5750 5746 5742 5737 5734 5731 5728 5724 5720 5717 5715 5713 5712 5711 5710 5710 5711 5712
5812 5810 5809 5807 5806 5805 5804 5804 5803 5801 5799 5797 5794 5791 5787 5783 5779 5775 5769 5764 5759 5754 5748 5743 5737 5731 5726 5721 5717 5713 5711 5706 5702 5699 5696 5694 5692 5690 5689 5689 5689 5690 5691
5808 5806 5805 5803 5801 5800 5798 5797 5795 5793 5790 5786 5783 5780 5776 5772 5767 5762 5756 5751 5745 5739 5731 5725 5719 5713 5706 5700 5695 5692 5688 5684 5680 5676 5673 5671 5669 5667 5667 5666 5666 5667 5669
5804 5802 5799 5797 5795 5793 5791 5788 5786 5783 5779 5776 5772 5768 5764 5759 5754 5748 5742 5736 5730 5724 5716 5708 5701 5694 5687 5680 5674 5671 5666 5661 5657 5652 5649 5646 5644 5642 5642 5642 5642 5643 5645
5798 5795 5792 5790 5787 5785 5782 5779 5776 5772 5769 5765 5760 5755 5750 5744 5739 5732 5726 5720 5714 5709 5700 5691 5683 5675 5668 5661 5653 5649 5643 5638 5633 5628 5624 5620 5617 5616 5615 5615 5616 5617 5619
5789 5786 5784 5781 5778 5775 5772 5768 5765 5761 5756 5752 5746 5741 5735 5729 5723 5717 5710 5703 5697 5692 5686 5674 5666 5658 5650 5642 5634 5627 5620 5614 5609 5604 5600 5596 5593 5591 5590 5589 5590 5591 5593
5780 5777 5774 5771 5768 5764 5761 5757 5752 5748 5743 5738 5732 5727 5720 5714 5708 5701 5695 5687 5680 5674 5669 5660 5650 5641 5633 5624 5615 5607 5600 5593 5587 5582 5578 5574 5571 5569 5568 5567 5567 5568 5569
5769 5766 5763 5760 5756 5753 5749 5744 5740 5735 5729 5724 5718 5712 5706 5700 5693 5686 5680 5672 5664 5657 5651 5644 5632 5623 5615 5607 5599 5591 5584 5577 5571 5566 5562 5558 5555 5553 5551 5550 5549 5549 5550
5758 5755 5751 5747 5743 5739 5735 5731 5726 5721 5715 5710 5704 5698 5692 5686 5679 5672 5664 5657 5649 5640 5633 5627 5617 5608 5600 5592 5586 5579 5572 5566 5561 5556 5552 5548 5544 5542 5539 5537 5536 5535 5535
5746 5742 5739 5734 5730 5726 5722 5717 5712 5707 5702 5696 5691 5685 5678 5672 5665 5657 5650 5642 5634 5625 5617 5610 5602 5594 5588 5581 5576 5570 5564 5558 5553 5549 5544 5540 5537 5533 5531 5528 5526 5525 5523
5734 5729 5725 5721 5716 5712 5708 5703 5699 5694 5689 5683 5677 5671 5665 5658 5650 5643 5635 5627 5619 5612 5604 5597 5590 5584 5579 5573 5567 5562 5557 5551 5546 5542 5538 5534 5530 5527 5524 5521 5519 5517 5515
5720 5716 5711 5707 5702 5698 5694 5690 5685 5681 5675 5670 5663 5657 5651 5644 5636 5629 5621 5614 5607 5600 5593 5587 5582 5577 5571 5566 5560 5554 5550 5545 5540 5535 5532 5528 5524 5521 5518 5515 5512 5510 5508
5706 5702 5697 5693 5689 5685 5680 5676 5672 5667 5662 5656 5650 5643 5637 5631 5624 5616 5609 5602 5596 5590 5585 5580 5575 5570 5564 5558 5553 5547 5542 5538 5533 5529 5525 5521 5518 5515 5512 5510 5507 5504 5502
5692 5688 5683 5679 5676 5672 5667 5663 5658 5654 5649 5644 5637 5631 5624 5618 5612 5605 5599 5593 5587 5582 5578 5573 5568 5562 5557 5551 5546 5540 5535 5529 5525 5521 5518 5514 5511 5509 5507 5505 5502 5500 5498
5679 5675 5670 5666 5663 5659 5655 5650 5646 5641 5636 5631 5626 5620 5613 5607 5602 5596 5591 5586 5581 5577 5572 5567 5562 5556 5550 5545 5539 5534 5529 5523 5519 5514 5511 5508 5505 5503 5502 5500 5498 5496 5494
5666 5662 5658 5654 5650 5647 5643 5638 5633 5629 5624 5620 5615 5609 5604 5599 5595 5590 5585 5581 5577 5572 5567 5562 5556 5551 5546 5540 5535 5530 5524 5519 5514 5509 5505 5501 5499 5497 5497 5496 5494 5492 5490
5653 5649 5645 5641 5638 5635 5631 5626 5622 5617 5613 5609 5604 5600 5596 5592 5589 5585 5581 5578 5573 5569 5563 5558 5553 5548 5543 5538 5532 5527 5521 5516 5510 5506 5501 5497 5494 5493 5492 5491 5490 5488 5486